Weather in Casablanca

Morocco     33°34′26″N   7°36′10″W
temp.,
°C
wind,
m/s
gust,
m/s
humid.,
%
clouds,
%
prec.,
mm/h
press.,
hPa
HPBL,
m
9 may, sun
sun900:00+17w35845 1.8 1015262
03:00+15wsw359045 0.0 1014321
06:00+15ssw368727 0.1 1014456
09:00+20wsw56602 0.1 10151129
12:00+24w563510 0.1 10141529
15:00+24wnw674715 0.0 10131343
18:00+21wnw686857 0.0 1014970
21:00+18nnw3579100 0.4 1016683
10 may, mon
mon1000:00+18nw237369 0.5 1016612
03:00+16nw247944 0.0 1016390
06:00+15wsw23814 0.1 1016150
09:00+19wnw34587 0.0 10171161
12:00+21nw665349 0.1 10171341
15:00+21nw664716 0.0 10171478
18:00+19nw56542 0.0 10181280
21:00+16nw24656 0.0 1021565
11 may, tue
tue1100:00+15n24745 0.0 1021404
03:00+14ene127914 0.1 1021116
06:00+14ne23792 0.2 1022129
09:00+19ne345326 0.1 10221366
12:00+21n664716 0.1 10211424
15:00+21n76483 0.0 10211245
18:00+18nne67560 0.0 1021875
21:00+16nne48660 0.0 1023522
12 may, wed
wed1200:00+15ne48670 0.0 1023483
03:00+13ne37700 0.0 1022294
06:00+12ene26720 0.0 1022172
09:00+18nne46515 0.0 1022864
12:00+22n664120 0.0 10221045
15:00+21n7747100 0.0 1021908
18:00+19nne5755100 0.0 1021698
21:00+16ne477195 0.0 1022348
13 may, thu
thu1300:00+15ne378210 0.0 1022324
03:00+15ene3691100 0.0 1020259
06:00+16ene368798 0.0 1019290
09:00+18ne457054 0.0 1019813
12:00+22n6645100 0.0 10181023
15:00+22n6748100 0.0 1017956
18:00+19nne6758100 0.0 1017757
21:00+16nne477196 0.0 1018424